Weather in Druzhino

Russia / Mari El Republic     56°32′08″N   49°56′53″E
temp.,
°C
wind,
m/s
gust,
m/s
humid.,
%
clouds,
%
prec.,
mm/h
press.,
hPa
HPBL,
m
27 february, sat
sat2700:00−15se81595100 3.7 1003641
03:00−14se71394100 6.1 1001593
06:00−14ese71195100 1.1 999523
09:00−13e61094100 2.4 1000500
12:00−11ene6992100 0.5 1000600
15:00−10ne6993100 0.9 1001633
18:00−11nne61094100 0.5 1002507
21:00−13nne6119499 0.7 1004397
28 february, sun
sun2800:00−14n6109599 0.1 1004307
03:00−17n599698 0.3 1006242
06:00−18n599695 0.1 1007243
09:00−19n589592 0.1 1008245
12:00−16n579372 0.0 1010328
15:00−15n589282 0.0 1011411
18:00−18n499796 0.0 1013159
21:00−20n459983 0.0 101679
1 march, mon
mon100:00−22n349918 0.0 101759
03:00−23n349811 0.0 101950
06:00−24n34980 0.0 102134
09:00−20n24961 0.0 1022131
12:00−15nw228737 0.0 1021281
15:00−12w248860 0.0 1021384
18:00−17sw349671 0.0 101944
21:00−18ssw479871 0.0 1018127
2 march, tue
tue200:00−16ssw61096100 0.0 1015253
03:00−14ssw71296100 0.1 1011292
06:00−12ssw71394100 0.6 1006383
09:00−10ssw81294100 1.4 1003427
12:00−6ssw71295100 0.7 1000489
15:00−2ssw71196100 1.4 998476
18:00−1sw3698100 0.8 998246
21:00−3wsw239797 1.1 99857
3 march, wed
wed300:00−4nw2298100 0.3 99837
03:00−6n61195100 1.9 999418
06:00−7nnw51094100 0.6 1000353
09:00−6nnw599499 0.6 1002423
12:00−4nnw599198 0.1 1003644
15:00−3nnw7109199 0.3 1004811
18:00−6nnw5119197 0.1 1006503
21:00−9nw499391 0.1 1008182